This demonstration page uses our WeatherBlox Daily Observations layout. Learn more.

39.92423, -83.80882

Hourly Observations for September 12, 2019

Temp ( °F °C ) Dew Point ( °F °C ) Humidity (%) Winds ( mph kmh ) Pressure ( in mb ) Visibility ( mi km ) Precip ( " mm )
12:56 am 00:56 Clear 70 21.1 67 19.4 90 90 SW 5 7 30.09 1019 10 16.09344 0 0
1:56 am 01:56 Clear 68 20 67 19.4 96 96 Calm 30.09 1019 10 16.09344 0 0
2:56 am 02:56 Clear 70 21.1 67 19.4 90 90 Calm 30.09 1019 10 16.09344 0 0
3:56 am 03:56 Clear 67 19.4 66 18.9 97 97 Calm 30.09 1019 10 16.09344 0 0
4:56 am 04:56 Mostly Cloudy 68 20 66 18.9 93 93 Calm 30.09 1019 10 16.09344 0 0
5:56 am 05:56 Clear 70 21.1 68 20 93 93 SSW 7 11 30.12 1020 10 16.09344 0 0
6:56 am 06:56 Mostly Cloudy 70 21.1 68 20 93 93 WSW 3 6 30.12 1020 10 16.09344 0 0
7:56 am 07:56 Sunny 70 21.1 69 20.6 97 97 SW 6 9 30.15 1021 10 16.09344 0 0
8:56 am 08:56 Sunny 75 23.9 70 21.1 84 84 WSW 7 11 30.15 1021 10 16.09344 0 0
9:56 am 09:56 Sunny 80 26.7 71 21.7 74 74 WSW 9 15 30.15 1021 10 16.09344 0 0
10:56 am 10:56 Sunny 83 28.3 72 22.2 70 70 W 6 9 30.15 1021 10 16.09344 0 0
11:56 am 11:56 Sunny 88 31.1 71 21.7 57 57 W 9 15 30.12 1020 10 16.09344 0 0
12:56 pm 12:56 Mostly Sunny 89 31.7 70 21.1 53 53 WNW 8 13 30.12 1020 10 16.09344 0 0
1:56 pm 13:56 Mostly Cloudy 90 32.2 70 21.1 52 52 WNW 10 17 30.12 1020 10 16.09344 0 0
2:56 pm 14:56 Mostly Sunny 90 32.2 68 20 48 48 VRB 3 6 30.09 1019 10 16.09344 0 0
3:56 pm 15:56 Partly Cloudy 91 32.8 67 19.4 45 45 WSW 9 15 30.09 1019 10 16.09344 0 0
4:56 pm 16:56 Cloudy 92 33.3 67 19.4 44 44 VRB 5 7 30.09 1019 10 16.09344 0 0
5:56 pm 17:56 Mostly Sunny 90 32.2 69 20.6 50 50 NE 6 9 30.06 1018 10 16.09344 0 0
6:56 pm 18:56 Cloudy 84 28.9 71 21.7 65 65 E 5 7 30.09 1019 10 16.09344 0 0
7:03 pm 19:03 Cloudy with Nearby Thunderstorms 84 29 72 22 66 66 ENE 5 7 30.06 1018 10 16.09344 0 0
7:23 pm 19:23 Cloudy 84 29 72 22 66 66 ENE 8 13 30.06 1018 10 16.09344 0 0
7:56 pm 19:56 Mostly Cloudy 80 26.7 71 21.7 74 74 SE 3 6 30.09 1019 8 12.874752 0 0
8:56 pm 20:56 Hazy 77 25 71 21.7 82 82 ESE 3 6 30.12 1020 6 9.656064 0 0
9:56 pm 21:56 Clear 76 24.4 70 21.1 82 82 ESE 9 15 30.12 1020 10 16.09344 0 0
10:56 pm 22:56 Clear 76 24.4 70 21.1 82 82 ESE 9 15 30.12 1020 10 16.09344 0 0
11:56 pm 23:56 Clear 73 22.8 70 21.1 90 90 Calm 30.12 1020 10 16.09344 0 0

Powered by AerisWeather